Miami, FL

4:13 AM EDT on June 20, 2018 (GMT -0400)
Miami International

Weather History for KMIA - August, 2017

Change the Weather History Date:

Sunday, August 13, 2017

  Actual Average Record
Temperature  
Mean Temperature 88 °F 84 °F  
Max Temperature 95 °F 91 °F 96 °F (2006)
Min Temperature 80 °F 78 °F 69 °F (1942)
Degree Days  
Heating Degree Days 0 0  
Month to date heating degree days 0 0  
Since 1 June heating degree days 0 0  
Since 1 July heating degree days 0 0  
Cooling Degree Days 23 19  
Month to date cooling degree days 280 255  
Year to date cooling degree days 3202 2735  
Since 1 June cooling degree days 1498 1379  
Growing Degree Days 38 (Base 50)    
Moisture  
Dew Point 75 °F    
Average Humidity 71    
Maximum Humidity 85    
Minimum Humidity 56    
Precipitation  
Precipitation 0.00 in 0.29 in 2.95 in (1928)
Month to date precipitation 1.91 3.44  
Year to date precipitation 43.81 34.96  
Snow  
Snow 0.00 in - - ()
Month to date snowfall 0.0  
Since 1 June snowfall 0.0  
Since 1 July snowfall 0.0  
Snow Depth 0.00 in    
Sea Level Pressure  
Sea Level Pressure 29.99 in    
Wind  
Wind Speed 5 mph (ESE)    
Max Wind Speed 15 mph    
Max Gust Speed 22 mph    
Visibility 10 miles    
Events Thunderstorm    
T = Trace of Precipitation, MM = Missing Value Source: NWS Daily Summary

Daily Weather History Graph

Daily Weather History Graph

Search for Another Location

Airport or City:

Astronomy

Aug. 13, 2017 Rise Set
Actual Time 6:53 AM EDT 7:58 PM EDT
Civil Twilight 6:29 AM EDT 8:22 PM EDT
Nautical Twilight 6:00 AM EDT 8:50 PM EDT
Astronomical Twilight 5:31 AM EDT 9:20 PM EDT
Moon No Moon Rise 12:17 PM EDT (8/13)
Length of Visible Light 13h 53m
Length of Day
13h 04m
Waning Gibbous, 65% of the Moon is Illuminated
Aug 13
Waning Gibbous
Aug 14
Last Quarter
Aug 21
New
Aug 29
First Quarter
Sep 6
Full

Hourly Weather History & Observations

Time (EDT) Temp. Heat Index Dew Point Humidity Pressure Visibility Wind Dir Wind Speed Gust Speed Precip Events Conditions
12:53 AM 82.9 °F 90.2 °F 75.0 °F 77% 30.01 in 10.0 mi Calm Calm - N/A   Scattered Clouds
1:53 AM 82.9 °F 90.8 °F 75.9 °F 79% 29.99 in 10.0 mi NNE 3.5 mph - N/A   Partly Cloudy
2:53 AM 82.0 °F 87.9 °F 73.9 °F 76% 29.97 in 10.0 mi North 3.5 mph - N/A   Partly Cloudy
3:53 AM 82.9 °F 90.2 °F 75.0 °F 77% 29.97 in 10.0 mi North 3.5 mph - N/A   Partly Cloudy
4:53 AM 82.0 °F 88.6 °F 75.0 °F 79% 29.96 in 10.0 mi Calm Calm - N/A   Partly Cloudy
5:53 AM 80.1 °F 84.5 °F 73.9 °F 81% 29.97 in 10.0 mi Calm Calm - N/A   Partly Cloudy
6:53 AM 80.1 °F 85.1 °F 75.0 °F 85% 29.97 in 10.0 mi Calm Calm - N/A   Partly Cloudy
7:53 AM 84.0 °F 92.6 °F 75.9 °F 76% 30.00 in 10.0 mi Calm Calm - N/A   Partly Cloudy
8:53 AM 87.1 °F 98.8 °F 77.0 °F 72% 30.01 in 10.0 mi Calm Calm - N/A   Partly Cloudy
9:53 AM 89.1 °F 101.4 °F 77.0 °F 67% 30.02 in 10.0 mi East 4.6 mph - N/A   Scattered Clouds
10:53 AM 91.0 °F 101.6 °F 75.0 °F 59% 30.02 in 10.0 mi Variable 4.6 mph - N/A   Scattered Clouds
11:53 AM 91.9 °F 101.3 °F 73.9 °F 55% 30.02 in 10.0 mi SSE 3.5 mph - N/A   Scattered Clouds
12:53 PM 91.0 °F 99.3 °F 73.0 °F 55% 30.01 in 10.0 mi North 3.5 mph - N/A   Mostly Cloudy
1:53 PM 91.9 °F 101.3 °F 73.9 °F 55% 30.00 in 10.0 mi SE 9.2 mph - N/A   Mostly Cloudy
2:13 PM 93.0 °F 105.3 °F 75.9 °F 57% 29.99 in 10.0 mi SE 9.2 mph - N/A Thunderstorm Mostly Cloudy
2:28 PM 93.0 °F 105.3 °F 75.9 °F 57% 29.99 in 10.0 mi ESE 10.4 mph - N/A   Mostly Cloudy
2:36 PM 91.9 °F 103.2 °F 75.0 °F 58% 29.98 in 10.0 mi ESE 10.4 mph - N/A Thunderstorm Thunderstorm
2:53 PM 91.0 °F 99.3 °F 73.0 °F 55% 29.99 in 10.0 mi ESE 12.7 mph - N/A Thunderstorm Thunderstorm
3:09 PM 91.0 °F 100.4 °F 73.9 °F 57% 29.97 in 10.0 mi East 13.8 mph - N/A   Mostly Cloudy
3:53 PM 91.9 °F 101.3 °F 73.9 °F 55% 29.97 in 10.0 mi East 10.4 mph - N/A   Scattered Clouds
4:53 PM 90.0 °F 99.0 °F 73.9 °F 59% 29.97 in 10.0 mi SE 9.2 mph - N/A   Scattered Clouds
5:53 PM 90.0 °F 100.2 °F 75.0 °F 61% 29.97 in 10.0 mi SE 12.7 mph - N/A   Scattered Clouds
6:53 PM 89.1 °F 99.1 °F 75.0 °F 63% 29.97 in 10.0 mi SE 10.4 mph - N/A   Scattered Clouds
7:53 PM 87.1 °F 97.3 °F 75.9 °F 69% 30.00 in 10.0 mi SSE 10.4 mph - N/A   Scattered Clouds
8:53 PM 87.1 °F 97.3 °F 75.9 °F 69% 30.02 in 10.0 mi SSE 9.2 mph - N/A   Scattered Clouds
9:53 PM 86.0 °F 96.0 °F 75.9 °F 72% 30.02 in 10.0 mi SSW 5.8 mph - N/A   Partly Cloudy
10:53 PM 84.9 °F 92.1 °F 73.9 °F 69% 30.02 in 10.0 mi Calm Calm - N/A   Clear
11:53 PM 84.9 °F 92.1 °F 73.9 °F 69% 30.04 in 10.0 mi West 3.5 mph - N/A   Partly Cloudy